Location: Kalberh�ni
(46.4610°N, 7.2453°E)
Time: 17:28:01
(UTC+00:00)

Meteor 2-1 Rocket - Pass Details

Date: 23 October 2021
Orbit: 830 x 906 km, 81.3° (Epoch: 28 November)

Event Time Altitude Azimuth Distance (km) Brightness Sun altitude
Rises 04:44:11 0° 1° (N) 3,386 7.3 -13.6°
Reaches altitude 10° 04:47:31 10° 22° (NNE) 2,449 6.9 -13.1°
Maximum altitude 04:51:02 17° 61° (ENE) 2,002 7.0 -12.5°
Drops below altitude 10° 04:54:33 10° 101° (ESE) 2,452 8.1 -11.9°
Sets 04:57:52 0° 122° (ESE) 3,392 8.6 -11.3°
